Lapse_Rate
6.6 7.2 8.2 8.1 8.3 8.3 9.0 8.8 9.4 9.2 9.0 8.4 8.9 8.6 8.7 8.9 9.2 9.1 8.9 9.1 8.7 8.3 8.4 6.9 6.9 7.8 8.1 7.9 8.0 7.8 7.7 7.4 7.4 7.4 7.4 7.2 7.0 6.8 6.6 6.5 6.4 6.4 6.4 6.5
7.2 7.3 8.1 7.8 7.8 7.7 7.6 7.9 8.8 9.3 8.3 7.8 8.0 6.9 8.1 7.7 8.8 9.1 9.1 8.8 8.7 8.7 8.5 7.4 5.8 7.6 8.3 7.9 8.1 8.0 8.0 7.9 7.5 7.3 7.2 7.3 7.2 7.0 6.8 6.6 6.6 6.5 6.5 6.6
7.2 7.7 7.6 8.2 7.8 7.6 7.4 7.3 7.8 8.2 7.7 7.3 7.4 7.1 7.5 7.7 7.9 8.3 8.5 8.3 8.2 7.7 8.0 7.5 6.9 6.0 7.7 8.1 7.7 8.1 8.1 8.3 8.0 7.7 7.5 7.2 7.1 7.1 7.0 6.8 6.6 6.7 6.6 6.7
7.1 7.4 7.6 6.9 8.0 8.5 8.2 7.9 7.9 7.7 7.4 7.3 7.2 7.2 7.1 6.7 7.4 7.4 6.8 7.3 7.3 7.1 6.6 6.7 5.0 5.5 7.4 7.7 7.7 8.2 8.3 8.2 8.4 8.1 7.8 7.4 7.0 7.0 7.0 6.9 6.7 6.7 6.7 6.7
7.4 7.7 7.6 7.9 8.8 8.2 8.3 8.5 8.4 7.9 7.7 7.4 7.4 7.2 6.9 6.8 6.6 5.9 6.4 5.4 6.5 6.9 6.8 7.3 7.0 6.8 6.8 7.0 7.9 8.1 8.3 8.5 8.6 8.4 8.1 7.7 7.2 7.0 6.9 6.7 6.7 6.7 6.8 6.8
7.6 8.1 8.6 8.3 7.6 8.0 7.8 7.5 7.9 7.3 7.0 7.0 6.6 7.0 6.9 6.6 6.1 5.8 5.5 6.2 6.4 7.2 7.2 7.4 7.7 7.6 7.4 7.4 7.1 8.4 8.3 8.8 8.7 8.7 8.4 8.2 7.8 7.3 7.0 6.8 6.7 6.7 6.8 6.8
7.6 7.5 7.9 8.2 7.7 7.6 7.8 8.0 7.9 7.4 7.3 7.0 6.7 5.7 5.7 5.9 5.8 5.9 6.0 5.4 6.1 7.1 6.9 7.1 7.3 7.5 7.6 7.5 8.0 8.5 8.7 8.6 8.6 8.6 8.7 8.6 8.0 7.7 7.3 7.1 6.8 6.7 6.7 6.6
7.5 7.6 7.4 7.7 7.4 7.5 7.5 7.4 7.4 7.2 7.1 7.2 6.9 6.3 5.8 5.8 5.6 6.1 6.5 6.1 6.8 7.1 6.9 6.9 6.8 7.1 7.5 7.7 7.9 8.4 8.7 8.7 8.4 8.7 8.7 8.6 8.6 8.3 7.8 7.3 7.0 6.8 6.7 6.7
6.9 7.6 7.3 7.5 7.6 7.5 7.5 7.4 7.4 7.5 7.2 6.8 6.7 6.8 6.5 6.2 6.1 5.9 6.6 6.8 6.5 6.6 6.9 7.0 7.0 7.0 7.5 7.8 8.2 8.3 8.3 8.8 8.7 8.7 8.8 8.7 8.7 8.6 8.3 7.7 7.1 6.9 6.8 6.5
7.0 7.0 7.0 6.9 7.3 7.4 7.3 7.1 7.1 7.1 7.1 6.7 6.6 6.7 6.9 6.6 6.3 6.8 6.5 6.8 6.6 7.2 7.2 7.2 7.1 6.8 7.0 7.9 8.2 8.3 8.3 8.6 8.8 8.7 8.8 8.9 8.7 8.7 8.2 8.0 7.5 7.0 6.8 6.8
6.5 6.5 6.8 6.8 6.9 7.1 7.3 6.8 6.8 6.5 6.5 6.1 5.6 6.6 6.8 6.5 6.3 5.9 6.2 6.7 6.7 7.3 7.4 7.3 7.2 6.8 6.9 7.6 8.1 8.4 8.4 8.5 8.8 8.7 8.8 8.8 8.7 8.6 8.5 8.0 7.8 7.3 7.0 6.9
5.3 5.6 5.6 5.9 6.0 6.2 6.4 6.4 6.4 6.1 5.8 5.8 5.6 5.5 5.6 5.7 5.7 5.9 5.8 6.1 7.1 7.2 7.2 7.0 7.3 7.0 6.9 7.0 7.4 8.1 8.3 8.5 8.6 8.8 8.8 8.9 8.8 8.6 8.5 8.0 7.9 7.4 7.2 7.1
5.1 5.4 5.4 5.3 5.4 5.4 5.4 5.4 5.7 5.9 5.5 5.7 5.4 5.3 5.1 5.4 5.6 5.8 5.7 5.7 5.8 6.7 6.5 6.4 6.4 6.4 6.2 6.0 6.4 6.9 7.5 8.3 8.5 8.7 8.6 8.7 8.9 8.6 8.6 8.1 7.9 7.6 7.4 7.2
5.3 5.1 5.3 5.2 5.1 5.2 5.4 5.4 5.4 5.5 5.8 5.4 5.2 5.1 5.2 5.1 5.0 5.7 5.5 5.5 6.3 6.5 6.3 6.3 6.4 6.2 6.3 5.6 5.7 5.7 6.1 6.6 7.0 7.6 7.9 8.3 8.6 8.1 8.5 8.2 8.4 8.3 7.7 7.5
5.2 5.4 5.1 5.0 5.2 5.0 4.9 5.2 5.2 5.4 5.5 5.7 5.3 5.2 5.2 5.0 5.4 5.5 4.9 4.6 5.6 6.3 6.3 6.4 6.5 6.4 6.4 6.3 6.0 5.5 5.9 5.5 6.6 6.9 6.5 6.5 6.7 7.2 8.0 8.1 8.3 8.0 8.0 7.9
5.2 5.1 5.2 5.2 4.9 5.2 5.2 5.1 5.2 5.1 5.2 5.4 5.4 5.3 5.4 5.2 5.2 5.0 4.8 4.7 4.8 5.3 5.8 6.2 6.3 6.3 6.4 6.2 5.9 5.4 6.4 6.4 6.4 6.2 6.3 6.6 6.5 7.0 7.0 6.8 6.8 7.8 7.6 7.3
5.4 5.3 5.4 5.1 4.8 4.9 5.2 5.3 5.1 5.1 5.3 5.3 5.1 5.2 5.0 4.9 4.6 4.5 4.2 4.7 4.6 4.6 4.8 5.7 6.1 6.1 6.0 6.1 6.2 6.2 5.0 6.3 6.4 6.5 6.6 6.6 6.7 6.6 6.7 6.3 6.7 6.8 7.6 7.7
5.5 5.7 5.5 5.6 5.0 4.8 5.2 5.2 5.3 5.1 4.8 4.5 4.6 4.5 4.3 4.7 4.5 4.0 4.0 4.4 4.5 4.3 4.4 4.8 5.5 5.7 5.9 5.9 5.7 6.0 5.7 5.9 6.1 6.4 6.4 6.7 6.6 6.6 6.3 6.1 5.2 6.0 6.7 7.3
5.3 5.2 5.5 5.5 5.5 5.2 4.8 4.9 4.9 4.8 5.1 4.7 4.1 4.3 4.1 3.9 3.6 3.6 4.1 4.2 4.3 4.1 4.2 4.7 5.1 5.8 5.7 5.7 5.4 5.2 5.1 5.3 5.6 6.3 6.5 6.4 6.8 4.9 6.1 6.3 6.0 6.3 7.1 7.4
5.7 5.3 5.1 5.3 5.6 5.3 5.0 5.0 4.5 4.6 4.3 4.4 4.1 3.8 3.8 3.8 3.6 3.5 3.6 3.6 4.0 4.5 4.6 4.8 4.9 5.4 5.4 5.5 5.7 5.6 5.6 5.8 6.0 6.2 6.5 6.8 7.0 6.7 6.7 6.1 6.2 6.3 6.4 6.9
6.3 5.9 5.5 5.2 5.6 5.4 5.2 5.3 4.9 4.5 4.4 4.3 3.9 3.4 3.2 3.5 3.3 3.6 3.4 3.5 4.0 3.8 4.1 3.9 5.2 5.3 5.4 5.4 5.3 5.4 5.7 5.7 5.6 5.8 5.8 6.2 6.3 6.4 6.1 6.1 5.9 5.8 5.9 6.1
6.5 6.2 6.2 5.7 5.6 5.5 5.5 5.3 5.0 4.7 4.5 4.5 4.5 3.7 2.8 3.4 3.5 3.6 3.9 3.9 3.5 3.0 3.4 3.6 4.7 5.3 5.5 5.5 5.5 5.3 5.2 5.3 5.4 5.3 5.3 5.6 5.5 5.7 6.2 6.6 6.9 6.3 6.5 6.4
6.6 6.4 6.4 6.1 5.8 5.5 5.4 5.3 5.3 5.1 5.0 4.8 4.6 4.5 4.1 3.3 3.4 3.7 3.6 3.2 3.2 3.6 4.0 4.2 4.4 4.8 5.2 5.4 5.4 5.4 5.5 5.6 5.7 5.4 5.2 5.3 5.5 5.6 6.1 6.2 6.4 6.1 6.6 6.5
6.9 6.4 6.4 6.4 6.1 6.0 5.8 5.7 5.6 5.5 5.3 5.2 4.8 4.7 4.3 4.4 3.9 4.1 3.8 3.1 3.0 2.9 3.2 3.4 3.9 4.3 4.4 5.0 5.1 5.0 5.2 5.4 5.6 5.6 5.7 5.6 5.5 5.6 5.6 5.8 5.9 5.6 5.7 6.0
7.3 6.8 6.6 6.3 6.6 6.2 6.1 6.1 6.0 5.4 5.7 5.2 5.2 4.6 4.6 4.2 4.4 4.3 4.3 4.3 3.5 3.2 3.6 3.5 3.4 3.6 3.9 3.9 4.1 3.8 4.2 4.6 4.8 4.9 4.8 4.8 4.9 5.2 5.3 5.6 5.8 5.3 5.2 5.4
6.8 6.8 7.2 6.7 6.7 6.7 6.5 6.4 6.0 5.9 5.8 5.5 5.5 5.0 4.8 4.7 3.9 3.6 3.6 3.8 4.1 4.0 3.9 3.3 3.7 3.9 3.9 3.9 3.9 4.0 3.9 3.6 3.6 3.7 3.9 4.3 4.4 4.5 4.5 4.7 4.7 4.8 4.8 4.8
7.3 7.3 7.1 7.2 6.9 7.0 6.8 6.9 6.3 6.0 5.9 5.4 5.7 5.6 5.1 5.0 4.6 4.2 3.8 3.4 3.6 3.2 3.0 2.9 2.6 2.3 2.3 3.0 3.7 3.9 3.6 3.8 3.9 4.0 4.0 3.9 3.8 3.9 3.9 3.8 3.8 4.0 4.1 4.5
Wind_Speed
21 24 20 18 17 18 20 23 20 19 22 22 9 21 16 19 20 10 11 7 14 12 8 19 21 22 20 19 21 21 20 22 22 20 19 18 18 18 19 16 15 15 14 13
20 22 21 21 19 18 20 20 22 18 21 20 16 7 19 19 21 27 7 1 7 7 9 13 11 19 19 19 19 19 20 21 19 19 18 18 18 17 17 17 17 16 16 15
18 17 21 21 20 19 20 20 18 18 19 18 15 16 8 14 17 18 24 10 13 14 9 9 11 14 19 18 17 18 17 18 18 18 19 20 18 18 17 18 16 17 17 16
11 14 15 15 21 21 24 24 20 20 21 20 19 17 16 16 8 12 25 16 13 13 14 4 14 27 19 17 16 15 17 16 17 18 19 19 19 18 18 16 17 16 17 17
8 13 16 23 11 8 10 12 9 18 17 25 19 21 20 15 16 12 14 26 16 13 13 12 13 13 10 15 20 18 15 18 17 19 18 19 20 20 17 16 16 16 16 17
10 14 16 18 8 8 10 10 16 15 17 23 24 14 4 14 15 13 12 18 20 19 17 15 14 15 12 13 15 20 20 17 17 17 18 19 19 18 16 16 17 15 17 17
13 11 14 5 5 8 10 5 15 14 15 18 15 10 11 11 13 13 13 17 19 18 15 17 15 14 14 14 15 16 18 16 15 16 18 17 16 15 16 16 15 16 16 15
10 11 14 5 8 12 9 12 15 15 14 16 20 18 17 13 13 13 13 15 18 15 14 17 13 10 16 16 16 11 15 16 16 16 14 14 17 15 16 15 16 15 15 12
4 4 12 7 6 9 10 12 15 15 15 16 22 16 16 11 13 13 11 11 13 13 12 15 17 15 13 14 14 13 8 17 16 15 15 15 16 16 14 15 14 14 12 12
10 3 12 12 10 11 11 12 16 16 15 16 21 15 14 10 10 10 11 10 13 15 14 15 16 16 14 15 12 12 12 14 15 15 15 15 11 13 13 13 13 13 13 12
5 6 14 4 13 14 14 15 15 20 17 17 13 11 11 9 11 9 8 10 9 12 12 15 16 14 16 16 15 11 13 13 14 12 14 14 14 13 13 14 14 14 12 12
3 10 8 12 11 13 14 15 18 14 10 10 9 8 9 8 9 6 7 9 9 10 12 13 15 15 16 16 15 13 7 10 11 11 12 12 13 6 11 5 10 12 7 12
3 9 8 9 11 8 12 13 11 11 10 7 2 4 8 8 6 6 7 11 12 9 10 11 13 14 16 17 16 14 10 6 9 11 11 13 13 11 9 3 8 7 9 10
5 2 5 6 6 12 9 13 9 10 9 8 6 6 9 10 3 5 8 10 11 8 10 11 12 14 17 16 16 14 10 10 6 8 10 12 13 11 10 10 8 5 2 1
2 6 2 0 5 10 9 10 9 9 11 11 8 6 9 8 11 10 10 10 9 9 11 12 12 15 15 15 13 13 10 8 7 3 4 3 14 12 11 11 9 8 5 4
5 8 4 0 4 9 12 12 10 10 11 10 10 9 9 10 10 10 10 11 10 9 12 12 12 14 15 13 12 11 10 14 9 1 4 5 3 3 2 4 5 6 4 4
6 6 8 11 10 7 11 10 11 10 10 10 11 10 8 8 6 8 9 12 8 8 11 12 13 14 13 12 12 9 10 8 11 4 6 4 3 3 2 2 3 5 4 4
3 7 3 6 7 6 7 9 7 7 6 6 5 8 8 9 9 6 8 9 12 12 13 14 14 15 13 13 14 10 9 8 8 6 7 4 2 3 4 4 3 5 5 3
6 1 4 5 3 3 4 8 5 3 4 5 3 3 4 9 8 8 11 12 12 11 13 15 21 17 14 17 17 10 9 9 6 8 5 8 9 10 8 8 10 7 2 3
6 4 2 1 5 3 3 5 5 6 4 5 2 5 8 9 11 11 11 9 10 9 14 17 15 13 15 17 19 11 12 12 11 10 10 10 9 8 9 10 11 8 8 10
4 1 2 3 5 6 7 6 7 5 5 6 5 4 7 8 11 10 9 8 13 14 13 15 13 10 9 14 13 11 12 12 11 10 11 10 10 12 11 9 7 6 5 7
6 5 3 4 5 7 7 6 8 5 2 5 5 7 7 11 9 12 11 9 7 14 9 9 10 20 14 20 11 12 12 12 11 10 10 10 9 10 9 9 9 9 9 8
11 7 1 3 4 6 6 4 5 4 4 6 7 5 11 5 8 9 8 8 8 13 10 11 18 23 23 12 11 11 13 13 11 11 10 10 10 9 9 9 9 9 9 9
6 4 10 2 1 4 4 6 6 4 8 5 12 5 7 11 7 8 8 7 4 7 7 8 11 17 19 10 11 11 11 10 11 10 10 14 9 9 10 10 11 9 9 11
8 6 5 4 5 5 6 3 4 9 6 7 6 8 6 10 9 5 7 3 2 1 6 4 7 13 11 11 11 10 10 11 10 10 10 9 9 10 9 9 9 8 8 10
2 5 5 4 5 6 6 7 7 7 6 9 6 8 6 6 8 8 5 5 4 0 6 7 5 6 8 9 11 11 10 10 10 10 11 10 10 9 9 9 8 8 8 8
6 4 5 0 2 4 6 5 4 7 7 7 8 4 4 7 5 7 5 4 4 4 4 6 8 9 9 10 8 8 8 8 10 11 10 8 8 7 7 7 7 7 6 6
Wind_Direction
278 284 287 282 283 285 270 259 259 249 253 262 21 355 343 351 347 269 228 263 235 226 166 180 170 178 183 190 190 189 193 194 200 202 203 200 203 199 204 205 202 205 208 212
274 284 276 264 263 264 275 281 277 263 277 291 334 81 295 331 360 340 260 194 352 357 221 127 231 173 184 190 189 191 193 195 194 194 195 204 204 203 200 206 204 204 208 211
273 275 278 268 255 260 263 263 270 267 264 282 302 301 283 321 356 343 338 25 19 355 41 32 59 292 178 191 194 190 196 191 191 190 196 200 202 203 205 203 206 207 208 209
268 286 271 259 279 250 245 251 257 264 272 280 289 290 298 317 332 329 336 351 358 344 343 55 125 247 226 189 195 199 194 193 190 192 194 196 201 206 206 203 207 208 211 212
249 256 266 284 289 6 351 258 280 354 326 319 302 271 270 28 40 358 342 328 333 333 329 329 321 315 316 197 191 199 201 199 193 192 193 193 199 204 205 206 206 212 212 214
233 251 252 256 62 348 327 260 26 3 347 340 334 296 62 10 24 6 344 328 321 324 320 305 293 293 285 287 195 198 203 203 199 190 194 196 198 200 201 205 210 210 217 217
225 243 261 63 345 310 258 291 344 341 337 342 326 337 336 356 14 358 346 321 320 308 299 289 274 257 260 260 266 205 203 202 192 195 197 193 194 198 200 205 208 212 217 221
240 248 258 66 240 245 347 328 323 329 322 327 317 321 321 348 354 348 345 337 325 314 311 304 330 276 230 241 246 262 192 195 201 196 194 195 191 196 201 203 209 212 213 218
227 290 50 19 336 319 312 297 303 315 308 315 310 307 316 343 336 336 351 335 331 323 348 354 349 346 332 228 228 239 240 190 196 190 194 196 194 197 199 202 207 210 215 212
343 68 349 314 342 351 326 314 306 299 300 299 285 293 305 334 327 323 344 345 340 347 6 358 346 340 351 341 302 203 226 190 189 188 191 197 199 195 200 201 204 207 211 210
268 309 328 30 341 328 318 319 312 308 289 269 268 280 292 309 317 315 332 333 340 356 4 1 341 342 352 348 341 230 203 185 186 188 186 194 207 199 202 206 205 204 206 210
301 314 306 294 319 335 325 320 306 294 311 269 248 264 295 297 300 302 342 328 337 6 7 356 342 342 351 353 351 347 200 183 190 189 190 197 200 176 33 159 144 185 166 195
265 296 298 305 308 323 313 314 326 326 306 278 228 310 298 288 299 337 357 349 334 360 358 355 341 340 346 351 354 348 342 250 203 205 199 196 199 186 175 76 47 57 121 115
170 136 308 0 334 330 323 328 336 323 322 347 2 16 340 277 267 15 8 328 330 357 5 353 344 340 344 346 346 339 350 357 274 217 217 194 196 193 176 174 171 157 86 48
115 151 141 134 9 359 356 349 351 352 354 350 357 33 9 11 33 16 4 341 342 4 4 350 352 342 332 332 346 330 348 360 327 27 51 358 192 195 186 177 177 152 128 125
68 20 102 208 88 51 13 7 8 5 359 357 355 20 35 27 33 20 357 358 360 8 352 344 350 332 323 325 338 329 349 313 338 332 61 71 9 64 3 124 124 119 114 110
7 26 9 11 43 90 61 24 4 0 10 9 4 3 24 31 28 27 8 4 15 2 352 339 343 328 311 330 353 328 294 355 302 248 155 178 183 83 250 71 178 172 166 212
315 60 47 7 11 55 111 98 61 358 346 332 9 21 15 9 9 29 15 5 14 7 357 346 335 330 345 357 346 337 328 327 352 52 47 67 80 108 110 78 328 104 80 225
192 163 349 356 3 51 70 139 145 171 291 312 17 111 19 32 19 12 18 18 20 1 352 347 348 353 357 351 348 322 329 339 28 29 42 63 84 65 61 58 53 33 62 98
152 172 153 324 18 61 67 80 89 51 46 115 82 71 65 58 39 18 19 24 19 7 353 355 353 3 3 355 350 1 4 35 32 32 38 46 52 72 78 52 69 56 58 70
180 108 61 332 77 33 34 105 91 65 57 52 51 67 101 89 72 40 20 26 23 8 12 356 15 14 15 20 18 23 22 27 34 38 30 23 34 39 45 68 50 52 51 78
106 137 29 19 32 54 27 45 59 115 84 89 62 83 103 107 75 68 44 21 13 12 22 21 27 35 35 32 31 33 37 38 37 39 46 41 40 49 40 44 43 35 36 35
314 45 276 85 12 43 33 13 65 37 33 84 97 65 92 65 51 55 61 20 18 10 27 36 38 46 45 42 39 35 42 42 43 44 48 53 50 51 47 43 45 35 38 41
352 352 322 20 42 357 26 50 32 18 29 84 133 54 123 104 88 90 102 88 36 24 38 41 39 58 59 52 51 43 45 46 48 49 52 48 50 55 52 51 57 42 37 46
144 197 262 302 338 262 77 11 108 110 67 72 91 81 52 82 110 114 109 115 208 309 62 16 70 52 58 65 69 58 59 55 50 49 48 48 52 59 62 62 67 69 58 54
199 90 294 358 346 5 22 24 54 31 31 49 32 87 62 92 116 130 138 101 166 49 67 64 92 84 73 66 70 65 70 78 72 65 59 49 47 50 52 54 52 55 55 56
107 258 164 222 111 33 17 20 40 63 35 38 39 46 67 77 85 86 72 74 112 66 56 72 58 83 77 74 68 97 84 83 87 82 73 73 66 58 53 56 54 55 66 62